Location: Azat
(46.0765°N, 1.7600°E)
Time: 13:54:01
(UTC+00:00)

FALCON 9 DEB - Visible Passes

Search period start: 06 August 2020 00:00
Search period end: 16 August 2020 00:00
Orbit: 429 x 440 km, 53.0° (Epoch: 05 August)

Date Brightness Start Highest point End Pass type
(mag) Time Alt. Az. Time Alt. Az. Time Alt. Az.
06 Aug 5.4 00:56:45 22° NNW 00:57:47 25° N 01:00:45 10° NE visible
06 Aug 4.7 02:32:11 10° NW 02:35:27 37° NNE 02:38:43 10° E visible
07 Aug 5.4 00:15:49 25° NNE 00:15:49 25° NNE 00:18:10 10° NE visible
07 Aug 5.0 01:49:41 10° NW 01:52:52 31° NNE 01:56:01 10° E visible
07 Aug 3.0 03:26:40 10° WNW 03:30:09 75° SW 03:33:36 10° SE visible
07 Aug 4.7 20:16:17 10° S 20:18:31 16° SE 20:18:37 16° SE visible
07 Aug 5.6 21:51:39 10° WSW 21:52:13 14° WSW 21:52:13 14° WSW visible
07 Aug 6.2 23:35:22 12° NE 23:35:22 12° NE 23:35:38 10° NE visible
08 Aug 5.2 01:08:42 20° NNW 01:10:15 28° N 01:13:19 10° ENE visible
08 Aug 3.2 02:44:10 10° WNW 02:47:40 78° NNE 02:51:09 10° ESE visible
08 Aug 3.0 21:09:11 10° SW 21:12:40 70° SE 21:15:22 16° ENE visible
08 Aug 5.2 22:46:43 10° W 22:48:50 26° NW 22:48:50 26° NW visible
09 Aug 6.0 00:29:56 14° ENE 00:29:56 14° ENE 00:30:37 10° ENE visible
09 Aug 3.7 02:03:28 27° NW 02:05:09 57° NNE 02:08:35 10° ESE visible
09 Aug 4.2 03:39:04 10° W 03:41:59 25° SW 03:44:52 10° SSE visible
09 Aug 3.3 20:26:51 10° SW 20:30:12 47° SE 20:33:36 10° ENE visible
09 Aug 4.6 22:04:01 10° W 22:07:19 38° NNW 22:09:26 19° NE visible
09 Aug 6.0 23:42:00 10° WNW 23:42:44 14° NW 23:42:44 14° NW visible
10 Aug 4.2 03:00:42 28° S 03:00:42 28° S 03:02:48 10° SSE visible
10 Aug 3.9 19:44:38 10° SSW 19:47:48 32° SE 19:50:58 10° ENE visible
10 Aug 4.1 21:21:20 10° W 21:24:44 48° NNW 21:28:09 10° NE visible
10 Aug 5.4 22:59:21 10° WNW 23:02:04 25° N 23:02:04 25° N visible
11 Aug 3.6 20:38:43 10° WSW 20:42:12 63° NNW 20:45:41 10° NE visible
11 Aug 5.3 22:16:39 10° WNW 22:19:41 27° N 22:21:04 20° NNE visible
11 Aug 6.3 23:54:14 10° NW 23:54:20 11° NW 23:54:20 11° NW visible
12 Aug 3.2 19:56:10 10° WSW 19:59:40 87° NNW 20:03:11 10° ENE visible
12 Aug 5.1 21:33:56 10° WNW 21:37:03 29° NNW 21:39:57 11° NE visible
12 Aug 5.8 23:11:42 10° NW 23:13:12 20° NNW 23:13:12 20° NNW visible
13 Aug 4.9 20:51:12 10° W 20:54:25 33° NNW 20:57:38 10° NE visible
13 Aug 5.3 22:29:06 10° NW 22:32:02 26° N 22:32:02 26° N visible
14 Aug 4.6 20:08:29 10° W 20:11:48 39° NNW 20:15:08 10° NE visible
14 Aug 5.3 21:46:29 10° WNW 21:49:28 25° N 21:50:50 20° NE visible
14 Aug 6.2 23:23:43 10° NW 23:24:05 12° NW 23:24:05 12° NW visible
15 Aug 5.3 21:03:48 10° WNW 21:06:47 25° N 21:09:37 11° NE visible
15 Aug 5.6 22:41:13 10° NW 22:42:52 23° NNW 22:42:52 23° NNW visible
